DAL351 KCLE-KCMH

Flight info

Callsign DAL351
Flight time 0h 24m
Altitude 14000
Route LBRON WAAHU BUGZZ CBUSS2
Aircraft A320/M-SDE3FGHIRWY/LB1

Departure

Time 2026-05-08 23:58
Airport Cleveland Hopkins International Airport (KCLE)

Arrival

Time 2026-05-09 00:22
Airport John Glenn Columbus International Airport (KCMH)
Time Latitude Longitude Altitude Speed Heading
2026-05-08 23:38 41.40913 -81.84056 770 ft 0 kts 141°
2026-05-08 23:49 41.40916 -81.84059 770 ft 3 kts 141°
2026-05-08 23:49 41.40937 -81.84082 754 ft 4 kts 142°
2026-05-08 23:49 41.40958 -81.84104 754 ft 4 kts 142°
2026-05-08 23:49 41.40979 -81.84121 754 ft 4 kts 170°
2026-05-08 23:50 41.41003 -81.84117 752 ft 4 kts 222°
2026-05-08 23:50 41.41013 -81.84095 752 ft 1 kts 263°
2026-05-08 23:54 41.41017 -81.84161 754 ft 13 kts 287°
2026-05-08 23:54 41.41041 -81.84252 754 ft 8 kts 286°
2026-05-08 23:54 41.41062 -81.84338 754 ft 9 kts 298°
2026-05-08 23:55 41.41205 -81.84383 752 ft 13 kts
2026-05-08 23:55 41.41263 -81.84370 752 ft 12 kts 21°
2026-05-08 23:55 41.41322 -81.84309 752 ft 10 kts 49°
2026-05-08 23:55 41.41363 -81.84244 751 ft 9 kts 50°
2026-05-08 23:56 41.41400 -81.84187 752 ft 8 kts 50°
2026-05-08 23:56 41.41438 -81.84152 761 ft 6 kts 13°
2026-05-08 23:56 41.41445 -81.84151 761 ft 0 kts
2026-05-08 23:56 41.41465 -81.84152 760 ft 14 kts 352°
2026-05-08 23:57 41.41502 -81.84248 759 ft 13 kts 249°
2026-05-08 23:57 41.41486 -81.84281 759 ft 0 kts 232°
2026-05-08 23:57 41.41402 -81.84401 760 ft 52 kts 226°
2026-05-08 23:58 41.41017 -81.85016 763 ft 118 kts 230°
2026-05-08 23:58 41.40372 -81.86038 807 ft 163 kts 229°
2026-05-08 23:58 41.39536 -81.87027 1522 ft 160 kts 206°
2026-05-08 23:58 41.38480 -81.87487 2304 ft 160 kts 195°
2026-05-08 23:59 41.37341 -81.87753 2823 ft 177 kts 193°
2026-05-08 23:59 41.36039 -81.87982 3153 ft 202 kts 192°
2026-05-08 23:59 41.34567 -81.88272 3564 ft 224 kts 201°
2026-05-08 23:59 41.33057 -81.89040 4185 ft 238 kts 207°
2026-05-09 00:00 41.31509 -81.89891 5117 ft 242 kts 209°
2026-05-09 00:00 41.29931 -81.90768 5771 ft 248 kts 208°
2026-05-09 00:00 41.28333 -81.91657 6031 ft 251 kts 208°
2026-05-09 00:00 41.26711 -81.92558 6907 ft 253 kts 209°
2026-05-09 00:01 41.25078 -81.93459 7827 ft 256 kts 208°
2026-05-09 00:01 41.23422 -81.94377 8684 ft 260 kts 208°
2026-05-09 00:01 41.21735 -81.95311 9571 ft 264 kts 208°
2026-05-09 00:01 41.20026 -81.96256 10310 ft 272 kts 208°
2026-05-09 00:02 41.18202 -81.97272 10598 ft 296 kts 208°
2026-05-09 00:02 41.16254 -81.98352 11110 ft 309 kts 208°
2026-05-09 00:02 41.14245 -81.99454 11826 ft 315 kts 207°
2026-05-09 00:02 41.12201 -82.00566 12581 ft 319 kts 207°
2026-05-09 00:03 41.10129 -82.01692 13343 ft 324 kts 208°
2026-05-09 00:03 41.08028 -82.02843 13873 ft 330 kts 208°
2026-05-09 00:03 41.05907 -82.04007 14002 ft 330 kts 208°
2026-05-09 00:03 41.03820 -82.05145 14044 ft 319 kts 208°
2026-05-09 00:04 41.01784 -82.06252 14042 ft 315 kts 209°
2026-05-09 00:04 40.99762 -82.07356 14050 ft 314 kts 209°
2026-05-09 00:04 40.97743 -82.08460 14056 ft 314 kts 209°
2026-05-09 00:04 40.95767 -82.09655 14051 ft 310 kts 216°
2026-05-09 00:05 40.94018 -82.11272 14051 ft 305 kts 223°
2026-05-09 00:05 40.92337 -82.12983 14043 ft 305 kts 223°
2026-05-09 00:05 40.90672 -82.14668 14058 ft 305 kts 223°
2026-05-09 00:05 40.88956 -82.16401 14058 ft 322 kts 223°
2026-05-09 00:06 40.87108 -82.18279 14055 ft 346 kts 222°
2026-05-09 00:06 40.85168 -82.20237 14032 ft 353 kts 222°
2026-05-09 00:06 40.83200 -82.22204 14042 ft 355 kts 222°
2026-05-09 00:06 40.81230 -82.24164 14040 ft 355 kts 222°
2026-05-09 00:07 40.79257 -82.26131 14035 ft 355 kts 222°
2026-05-09 00:07 40.77288 -82.28096 14038 ft 355 kts 222°
2026-05-09 00:07 40.75319 -82.30066 14029 ft 355 kts 222°
2026-05-09 00:07 40.73352 -82.32035 14036 ft 355 kts 222°
2026-05-09 00:08 40.71383 -82.34010 14015 ft 354 kts 222°
2026-05-09 00:08 40.69453 -82.35940 13552 ft 350 kts 222°
2026-05-09 00:08 40.67515 -82.37875 12940 ft 347 kts 222°
2026-05-09 00:08 40.65602 -82.39784 12386 ft 343 kts 221°
2026-05-09 00:09 40.63671 -82.41602 11775 ft 343 kts 215°
2026-05-09 00:09 40.61499 -82.42929 11210 ft 345 kts 205°
2026-05-09 00:09 40.59267 -82.44032 10672 ft 340 kts 205°
2026-05-09 00:09 40.57065 -82.45120 10188 ft 336 kts 205°
2026-05-09 00:10 40.54825 -82.46007 10023 ft 337 kts 200°
2026-05-09 00:10 40.52572 -82.46824 10036 ft 333 kts 200°
2026-05-09 00:10 40.50350 -82.47642 10038 ft 331 kts 200°
2026-05-09 00:10 40.48148 -82.48453 9989 ft 325 kts 200°
2026-05-09 00:11 40.46066 -82.49210 9994 ft 294 kts 200°
2026-05-09 00:11 40.44189 -82.49887 10019 ft 265 kts 201°
2026-05-09 00:11 40.42495 -82.50500 9837 ft 246 kts 201°
2026-05-09 00:11 40.40802 -82.51133 9449 ft 259 kts 201°
2026-05-09 00:12 40.39056 -82.51792 9316 ft 263 kts 201°
2026-05-09 00:12 40.37310 -82.52446 9185 ft 264 kts 201°
2026-05-09 00:12 40.35546 -82.53100 9058 ft 263 kts 201°
2026-05-09 00:12 40.33787 -82.53746 8922 ft 262 kts 201°
2026-05-09 00:13 40.32034 -82.54388 8790 ft 261 kts 201°
2026-05-09 00:13 40.30284 -82.55031 8655 ft 261 kts 201°
2026-05-09 00:13 40.28532 -82.55671 8530 ft 260 kts 201°
2026-05-09 00:13 40.26789 -82.56308 8393 ft 260 kts 201°
2026-05-09 00:14 40.25066 -82.56937 8094 ft 255 kts 201°
2026-05-09 00:14 40.23368 -82.57556 7734 ft 251 kts 200°
2026-05-09 00:14 40.21696 -82.58167 7382 ft 248 kts 200°
2026-05-09 00:14 40.20041 -82.58773 7013 ft 246 kts 200°
2026-05-09 00:15 40.18399 -82.59373 6647 ft 244 kts 200°
2026-05-09 00:15 40.16768 -82.59968 6271 ft 243 kts 200°
2026-05-09 00:15 40.15145 -82.60558 5880 ft 241 kts 200°
2026-05-09 00:15 40.13531 -82.61144 5433 ft 242 kts 200°
2026-05-09 00:16 40.11944 -82.61711 5247 ft 227 kts 200°
2026-05-09 00:16 40.10487 -82.62217 5049 ft 209 kts 200°
2026-05-09 00:16 40.09097 -82.62694 4626 ft 204 kts 200°
2026-05-09 00:16 40.07726 -82.63166 4173 ft 205 kts 200°
2026-05-09 00:17 40.06347 -82.63656 3850 ft 205 kts 200°
2026-05-09 00:17 40.04986 -82.64143 3546 ft 205 kts 200°
2026-05-09 00:17 40.03593 -82.64646 3232 ft 205 kts 200°
2026-05-09 00:17 40.02306 -82.65236 3119 ft 191 kts 217°
2026-05-09 00:18 40.01443 -82.66446 3032 ft 181 kts 238°
2026-05-09 00:18 40.00815 -82.67860 3004 ft 180 kts 242°
2026-05-09 00:18 40.00224 -82.69296 3007 ft 180 kts 242°
2026-05-09 00:18 39.99646 -82.70728 2840 ft 178 kts 242°
2026-05-09 00:19 39.99280 -82.72269 2559 ft 180 kts 267°
2026-05-09 00:19 39.99356 -82.73916 2505 ft 184 kts 272°
2026-05-09 00:19 39.99450 -82.75542 2528 ft 170 kts 272°
2026-05-09 00:19 39.99534 -82.76998 2409 ft 154 kts 271°
2026-05-09 00:20 39.99612 -82.78356 2230 ft 146 kts 272°
2026-05-09 00:20 39.99687 -82.79670 2072 ft 143 kts 273°
2026-05-09 00:20 39.99761 -82.80953 1891 ft 141 kts 272°
2026-05-09 00:20 39.99834 -82.82226 1709 ft 141 kts 272°
2026-05-09 00:21 39.99900 -82.83497 1484 ft 140 kts 273°
2026-05-09 00:21 39.99983 -82.84774 1289 ft 142 kts 274°
2026-05-09 00:21 40.00048 -82.86059 1122 ft 143 kts 273°
2026-05-09 00:21 40.00123 -82.87358 949 ft 144 kts 274°
2026-05-09 00:22 40.00201 -82.88618 827 ft 125 kts 274°
2026-05-09 00:22 40.00253 -82.89501 822 ft 69 kts 274°
2026-05-09 00:22 40.00240 -82.89756 821 ft 11 kts 202°
2026-05-09 00:22 40.00210 -82.89763 824 ft 0 kts 183°
2026-05-09 00:24 40.00167 -82.89714 824 ft 13 kts 109°
2026-05-09 00:24 40.00160 -82.89609 824 ft 15 kts 94°
2026-05-09 00:25 40.00149 -82.89392 824 ft 24 kts 94°
2026-05-09 00:25 40.00136 -82.89187 824 ft 21 kts 95°
2026-05-09 00:25 40.00125 -82.89014 825 ft 17 kts 95°
2026-05-09 00:25 40.00118 -82.88889 825 ft 11 kts 94°
2026-05-09 00:26 40.00114 -82.88812 825 ft 8 kts 94°
2026-05-09 00:26 40.00097 -82.88668 823 ft 15 kts 127°
2026-05-09 00:26 40.00039 -82.88627 825 ft 3 kts 152°
2026-05-09 00:26 40.00028 -82.88630 825 ft 5 kts 194°
2026-05-09 00:27 40.00007 -82.88639 825 ft 3 kts 194°
2026-05-09 00:27 39.99982 -82.88639 825 ft 2 kts 175°
2026-05-09 00:27 39.99974 -82.88638 825 ft 0 kts 175°